Torna al catalogo

STARLINK-32460

AttivoComunicazioniVLEO
NORAD 61914·PAYLOAD·🇺🇸 United States

Lanciato Nov 11, 2024 da Cape Canaveral Space Force Station

Loading…

Prossimi Passaggi (prossime 24 ore)

TLE

AggiornatoSource: CelesTrak SupGP

Epoca: Sep 14, 2026, 21:34 UTC

1 61914C 24207C   26257.89909722  .00001834  00000+0  66442-4 0  2572
2 61914  43.0026 292.7724 0001779 270.4561 104.5241 15.27576667    10

Traccia STARLINK-32460 in tempo reale con AllMySat

Download on the App Store